Theta_e
299 299 299 298 299 299 299 299 299 299 298 298 298 298 299 299 300 297 293 293 289 284 282 282 283 279 277 276 270 270 272 269 271 270 263 263 259 266 263 268 268 266 259 256 253 255 257 273 273 268 272 277 275 277
298 299 299 298 298 299 299 299 298 299 299 298 298 298 298 298 299 299 290 292 293 286 284 285 286 287 285 283 278 272 275 268 277 267 267 264 260 256 262 264 273 264 268 262 265 264 274 274 276 279 279 277 277 277
298 298 299 299 299 299 298 299 298 298 299 298 298 298 298 298 298 298 293 290 290 285 284 283 282 286 288 287 288 278 275 281 277 279 272 272 268 266 266 265 269 273 275 271 271 274 275 277 279 278 278 277 279 278
297 297 297 298 298 298 298 298 298 298 298 298 297 297 297 297 298 298 292 291 290 284 278 276 282 282 287 288 286 286 284 282 282 281 277 273 271 275 272 273 272 273 273 270 272 275 276 277 278 278 279 278 276 275
297 297 297 297 297 297 297 298 298 298 298 297 297 297 296 296 297 295 293 292 292 285 276 271 276 282 284 285 284 285 284 282 281 278 276 274 277 276 276 275 272 276 274 271 270 276 275 276 279 277 276 275 273 272
296 296 296 296 296 296 297 297 297 297 297 297 297 296 296 296 296 290 284 291 292 291 281 275 276 277 281 282 281 282 282 282 281 278 277 278 280 277 272 270 276 277 278 278 276 279 278 278 275 272 271 271 271 270
295 295 295 296 296 296 296 296 297 296 296 297 297 296 296 296 291 286 283 284 292 290 281 276 272 272 279 279 276 277 280 278 280 278 277 277 277 278 274 270 277 278 278 278 274 272 274 272 270 269 269 268 267 266
294 294 295 295 295 295 295 296 296 296 296 296 296 296 296 295 293 288 291 293 292 286 283 274 269 266 273 269 271 275 275 278 279 277 276 276 275 276 271 276 278 277 271 269 267 268 267 267 267 266 266 265 262 263
293 293 293 294 294 294 294 295 295 296 296 296 296 296 292 288 284 285 294 295 291 284 276 274 264 262 272 271 273 275 276 272 275 274 275 275 272 270 272 275 273 265 266 263 264 265 263 262 262 262 261 261 260 260
291 292 292 293 293 293 294 294 295 295 296 295 292 284 280 284 291 291 287 282 282 281 280 271 263 262 273 272 272 272 274 268 268 270 273 273 272 275 265 263 263 262 261 261 260 259 257 257 258 259 259 259 259 259
290 291 291 291 292 292 293 293 294 294 295 287 282 280 282 290 283 280 276 275 273 272 275 274 273 271 275 270 270 273 268 264 264 264 268 264 262 269 262 260 261 261 260 258 257 258 258 257 257 257 257 258 257 257
289 290 290 290 291 292 292 293 294 291 285 285 283 285 285 281 277 273 271 271 268 265 261 269 270 274 272 275 270 270 266 264 264 263 265 263 265 258 258 258 258 257 255 254 255 256 257 257 257 256 255 254 254 255
289 289 289 290 290 291 292 292 292 292 289 285 281 277 277 275 270 268 264 261 258 257 262 264 266 271 271 274 271 269 264 264 264 263 263 264 257 255 254 255 254 254 253 253 253 254 254 254 254 254 253 253 252 252
289 289 289 289 290 290 291 291 292 291 285 278 274 269 270 268 264 261 260 262 268 265 262 264 261 266 264 268 270 267 267 265 261 260 258 255 252 250 251 252 248 249 248 251 250 251 252 252 252 252 252 252 251 250
289 289 289 289 289 289 290 290 291 288 281 275 273 267 265 257 252 249 248 256 258 259 265 264 263 271 263 267 268 266 262 260 258 258 255 250 250 249 249 248 246 247 248 248 249 249 250 250 249 249 249 248 249 252
287 287 285 288 288 289 289 288 285 284 276 275 269 266 257 258 251 251 248 251 256 265 264 266 263 262 263 264 262 259 257 256 259 247 246 247 245 245 245 245 246 245 245 246 246 245 247 246 247 248 248 249 251 254
285 274 286 288 288 288 288 282 277 267 267 266 260 250 254 255 256 252 255 256 263 263 265 266 264 262 263 258 256 256 256 252 244 242 241 242 244 244 243 242 243 243 244 244 242 244 243 245 245 244 246 252 253 256
277 280 286 286 284 280 272 270 267 265 258 255 255 250 250 249 250 253 257 261 263 264 263 264 263 259 257 253 253 250 244 240 239 241 243 243 241 241 239 241 243 243 244 243 244 244 240 244 247 250 252 255 256 257
282 281 285 286 281 271 267 263 263 258 252 252 254 253 253 250 255 255 255 258 258 258 262 261 262 260 258 251 246 240 238 240 243 244 245 242 241 241 242 244 246 244 243 243 243 247 249 249 253 255 256 256 256 256
280 281 280 280 278 269 263 261 263 257 249 251 252 251 253 253 253 252 253 253 255 257 260 252 250 246 248 245 244 243 244 245 242 242 243 244 244 242 244 244 246 246 246 247 250 254 253 254 254 255 255 256 255 255
273 274 276 271 267 264 261 260 256 257 255 251 254 254 251 253 251 251 252 250 253 246 248 242 240 239 238 238 240 240 244 245 244 243 242 242 244 245 246 247 248 251 252 252 252 252 253 252 253 254 254 255 255 255
265 272 266 269 265 260 258 258 258 257 254 251 252 252 251 252 249 247 246 247 245 242 241 240 238 238 239 241 241 238 239 238 237 240 246 246 245 249 250 252 251 251 252 252 251 251 252 253 254 253 253 253 254 254
265 265 260 259 261 258 253 257 256 254 255 252 251 252 247 246 244 247 245 240 240 238 236 237 237 235 239 237 237 238 237 240 242 242 243 246 249 252 252 251 251 251 251 252 252 252 252 253 253 252 252 252 251 251
260 253 251 250 253 250 248 249 251 251 250 249 250 248 245 242 245 244 244 238 241 236 238 239 237 241 240 241 241 241 242 243 246 248 249 249 251 252 252 252 252 252 252 252 252 252 252 252 252 251 251 249 248 248
255 246 248 244 244 246 244 244 242 245 242 239 241 242 242 238 242 241 243 242 238 238 238 235 237 239 242 242 243 243 245 250 251 250 251 252 251 251 253 253 253 253 252 251 250 250 250 251 250 250 250 248 247 246
242 239 242 236 241 244 240 242 240 241 239 241 240 238 236 240 243 245 242 241 238 240 241 244 246 244 244 244 245 246 250 251 250 250 251 252 252 251 250 250 251 252 251 250 248 248 248 249 248 248 248 248 248 244
242 240 239 238 239 239 240 238 238 240 241 242 239 240 241 244 243 245 242 239 241 244 246 250 249 248 248 246 248 249 251 253 252 252 251 251 252 252 252 250 251 252 250 249 248 247 247 247 247 248 248 248 243 241
239 237 241 239 238 235 238 236 238 241 240 238 239 242 244 245 246 244 245 245 244 244 245 247 250 251 250 251 251 252 250 249 249 250 250 251 251 251 251 252 252 257 253 251 250 249 248 248 248 248 248 248 248 242
238 235 236 239 237 239 238 239 239 237 238 236 241 241 241 241 240 240 244 244 242 246 246 246 247 247 248 247 248 247 247 248 249 248 248 248 249 252 251 251 251 250 249 248 251 255 252 250 250 250 250 248 246 240
238 233 238 236 240 241 239 235 235 232 232 235 233 239 240 240 240 236 240 243 245 245 244 243 242 245 245 244 245 246 241 243 247 248 246 246 248 246 243 243 244 245 243 241 246 246 249 246 245 242 242 243 243 242
233 232 237 236 239 236 233 229 228 229 230 231 229 235 238 237 240 239 240 239 239 238 241 242 240 236 240 240 240 241 246 243 241 244 245 246 246 245 246 247 248 245 243 243 243 242 243 242 241 243 244 244 245 245
232 233 237 241 239 234 230 230 229 233 231 233 235 230 237 239 242 244 243 241 240 241 243 241 240 245 243 244 240 241 247 246 245 247 247 249 249 249 249 249 246 243 243 245 245 244 243 243 245 246 246 246 246 245
231 229 229 234 237 238 234 234 235 236 234 234 235 231 230 235 242 244 242 238 242 242 243 243 243 241 242 244 248 249 250 249 249 254 255 255 254 254 252 250 248 246 246 247 247 247 247 247 247 247 247 246 246 246
Wind_Speed
24 24 23 22 24 23 21 20 20 20 22 20 20 20 18 17 18 12 4 9 6 3 6 7 8 9 1 3 5 5 4 4 2 3 4 4 4 6 1 4 5 6 5 4 3 2 9 5 3 4 7 4 5 7
27 27 26 25 25 26 25 24 23 22 23 18 18 20 18 21 18 16 5 7 9 6 3 2 5 8 9 9 6 3 5 6 4 3 2 2 3 1 4 7 4 4 8 6 10 9 6 5 10 19 8 8 11 7
26 26 26 26 26 26 23 24 24 21 21 21 21 19 17 20 21 17 7 4 6 5 7 8 13 13 11 14 14 9 3 6 6 5 4 4 8 5 7 7 7 7 8 11 14 16 17 19 19 9 7 11 15 8
26 26 25 24 24 24 25 25 24 23 22 22 20 20 20 19 19 18 7 5 6 2 5 7 1 5 10 14 15 18 17 2 2 4 6 6 7 6 8 9 11 8 5 7 15 17 16 18 16 15 15 11 3 1
26 25 25 25 24 24 24 24 25 25 23 23 21 22 18 19 19 11 4 6 8 5 2 3 1 6 6 11 14 13 12 10 8 7 6 9 7 8 7 7 13 12 18 11 14 19 13 18 19 2 3 3 3 5
25 26 25 24 24 24 25 25 25 25 24 24 23 22 19 18 15 2 4 7 10 7 4 4 2 5 8 11 13 13 12 9 7 5 6 9 13 5 7 8 7 7 11 17 18 18 16 14 7 6 3 4 4 5
24 24 24 24 24 24 25 25 25 25 24 25 25 24 20 18 7 5 3 2 10 7 4 4 4 4 3 5 2 2 4 5 6 7 10 13 9 7 7 14 14 14 14 9 2 3 9 5 2 6 6 8 8 7
22 23 23 24 23 24 24 25 24 24 24 23 25 24 22 20 14 8 8 8 7 3 3 4 4 4 2 2 2 2 3 5 6 6 2 6 2 5 9 12 17 8 3 6 6 6 3 4 4 6 7 8 11 11
21 22 23 23 24 23 23 22 23 22 23 21 19 19 10 7 4 4 13 21 8 5 3 4 5 6 3 2 2 1 2 4 2 6 6 5 7 10 7 15 6 3 2 2 4 2 4 4 5 6 7 6 9 11
19 19 18 20 22 22 22 22 22 21 22 20 12 5 4 5 7 8 2 3 7 6 5 4 2 3 4 4 3 1 3 5 5 7 2 6 12 7 4 5 7 6 6 5 3 2 4 2 6 9 8 8 9 11
18 19 19 19 18 18 21 21 22 20 23 5 5 4 1 11 3 3 5 5 2 3 2 2 6 4 3 4 6 5 4 3 4 6 6 3 5 4 7 8 7 7 6 6 3 3 4 6 9 10 10 8 10 11
21 20 18 17 18 19 17 17 18 13 4 7 6 6 3 4 4 6 5 2 4 7 2 5 5 6 2 3 3 2 5 2 6 2 2 3 3 4 4 5 6 6 6 4 2 5 7 9 9 10 10 11 10 12
21 22 21 20 17 17 19 19 18 12 7 4 3 6 5 4 7 8 9 3 1 3 4 3 3 3 2 3 3 3 4 6 2 2 4 5 4 4 2 2 3 3 2 4 5 4 7 10 9 9 11 10 11 11
22 22 21 21 20 17 16 17 18 14 5 5 6 8 8 6 6 6 6 7 5 3 5 3 2 4 3 2 3 4 2 4 2 2 7 2 3 1 2 1 2 4 3 5 6 7 9 9 10 9 9 10 9 11
23 20 17 18 19 19 19 17 17 7 4 5 5 8 5 3 3 0 2 3 2 3 4 3 3 2 1 3 3 2 2 4 6 7 3 2 2 1 2 2 3 5 5 5 4 7 9 9 9 10 8 7 8 10
7 11 8 12 14 16 17 15 5 3 2 2 3 5 2 5 3 2 1 1 2 1 2 2 3 3 4 3 3 7 6 8 6 3 2 1 1 2 3 3 5 5 5 6 6 6 8 8 8 9 9 9 9 8
5 0 8 11 13 12 7 3 3 5 3 3 2 4 3 3 4 4 3 3 1 2 3 3 7 8 3 2 3 5 7 3 3 3 2 2 3 4 4 4 5 4 6 6 4 6 6 7 6 5 6 6 5 6
4 5 10 3 5 7 4 6 4 4 6 3 2 3 2 2 4 1 1 3 2 3 3 4 5 3 6 7 5 3 2 2 2 2 2 3 3 4 3 5 6 5 5 6 6 6 4 6 6 5 5 5 6 5
7 8 15 5 8 6 4 5 4 5 2 1 2 3 3 2 3 3 3 3 2 2 2 1 4 4 5 2 3 2 2 3 2 2 2 3 3 4 5 4 4 4 4 4 4 4 4 5 4 5 5 4 4 4
8 16 14 17 9 5 5 4 3 5 3 2 3 2 2 3 2 2 2 3 2 0 2 2 3 2 3 3 3 3 3 3 3 2 2 3 2 3 3 2 3 4 4 5 4 6 5 5 5 5 5 4 4 5
6 7 12 7 5 7 5 3 4 2 3 4 1 2 3 2 2 2 2 3 1 2 1 3 3 3 1 2 1 2 2 3 4 4 4 2 3 2 3 3 3 2 3 4 5 6 6 5 6 6 5 5 4 5
2 9 4 6 5 4 6 5 4 2 4 2 2 2 2 2 1 2 3 3 0 3 4 4 3 3 1 0 2 3 3 3 1 0 2 2 2 2 2 2 3 3 3 3 4 5 5 5 6 5 5 6 6 5
7 5 5 6 5 6 2 3 3 4 2 2 1 3 2 1 2 2 2 2 4 2 2 2 2 2 3 2 1 1 3 4 1 1 2 2 3 2 1 1 0 2 3 2 3 4 4 7 6 5 5 5 5 5
12 9 8 6 6 3 3 4 3 3 2 2 2 3 2 2 4 4 1 3 4 2 0 2 2 2 2 4 2 2 3 3 2 2 2 1 1 2 2 2 1 0 1 3 3 3 4 4 6 4 4 4 3 3
9 11 6 7 4 6 6 4 5 5 2 2 4 2 2 3 3 0 3 4 2 2 2 2 2 2 4 2 2 3 3 3 2 2 2 3 1 1 1 1 1 2 0 2 2 3 4 4 4 4 4 2 5 5
10 5 5 1 4 4 1 3 2 2 2 2 0 2 2 3 3 5 4 4 4 5 5 5 5 2 2 3 3 1 3 3 2 2 2 3 3 2 2 2 1 2 3 2 1 3 4 4 4 5 4 4 5 4
7 5 3 0 3 3 4 2 1 3 3 3 2 1 3 2 4 5 3 3 3 4 4 4 5 4 3 3 2 2 1 3 4 3 2 2 3 3 4 4 4 3 3 3 3 3 4 5 5 5 6 4 4 3
2 3 3 4 3 1 4 2 2 1 2 1 2 1 6 7 5 4 4 2 3 0 2 1 2 3 2 2 2 2 1 1 2 4 3 4 4 4 5 5 5 9 5 4 4 4 5 5 6 6 7 7 7 3
3 3 1 4 3 3 1 3 3 3 2 3 3 2 4 4 3 2 2 2 0 3 3 3 0 2 2 2 1 1 2 2 2 2 2 3 3 3 3 4 3 3 2 3 8 8 7 7 8 7 6 5 5 3
4 2 3 1 2 1 3 3 2 2 1 1 1 3 3 4 4 1 1 1 2 2 3 2 2 3 2 2 2 4 2 4 5 5 4 4 5 3 1 3 3 4 2 3 5 5 6 3 5 3 3 4 3 4
1 2 2 1 1 3 3 2 2 1 2 1 1 2 4 5 5 2 2 2 3 3 3 1 2 2 4 3 3 1 5 2 4 7 5 4 5 5 5 6 5 4 4 4 4 4 4 3 4 5 7 8 8 6
3 2 1 3 3 3 3 3 1 1 3 3 2 2 4 3 4 3 1 3 3 2 4 3 3 5 5 4 2 3 4 4 3 5 7 6 7 7 6 5 4 3 4 5 5 5 6 8 7 8 8 10 9 9
1 0 0 2 4 5 4 3 4 4 3 2 3 1 2 2 4 5 2 3 4 4 4 4 4 3 5 5 5 5 6 5 7 10 11 12 13 12 7 5 5 5 7 7 7 7 9 10 10 11 11 11 11 11
Wind_Direction
256 253 247 252 248 250 250 248 250 244 245 250 251 249 244 249 251 235 203 180 197 235 244 200 199 210 84 155 160 237 27 332 49 180 147 227 188 227 125 237 198 175 159 225 69 37 290 207 340 171 222 244 208 221
255 254 251 245 251 248 250 250 252 253 250 252 258 260 257 258 244 246 217 190 194 220 259 211 228 233 210 185 171 234 206 168 172 103 235 82 271 21 179 243 166 271 196 194 181 218 238 229 248 280 262 252 258 236
259 260 254 256 253 258 254 244 249 250 243 237 239 244 250 254 250 243 229 172 189 223 242 233 233 222 218 216 215 234 244 191 216 174 178 213 233 137 243 235 257 243 232 244 262 259 257 262 271 268 258 263 272 246
259 258 255 256 256 254 254 253 253 252 244 244 248 252 251 255 255 246 228 190 203 192 231 252 40 186 206 215 209 212 239 148 178 168 222 212 234 192 243 249 234 229 176 224 252 266 266 267 260 264 267 261 243 90
261 258 256 256 258 256 256 254 249 249 247 244 245 249 253 254 250 249 234 190 202 209 247 256 299 235 190 187 207 219 229 232 230 235 228 245 242 239 236 243 242 232 246 240 251 259 269 270 277 326 269 292 19 348
260 257 254 253 255 257 256 253 250 248 243 238 242 244 245 248 241 106 245 200 192 218 253 222 288 187 202 188 190 200 210 216 214 216 235 238 230 210 252 241 243 216 223 232 247 262 266 275 91 47 3 9 349 329
258 255 254 254 255 256 254 252 250 247 244 240 235 240 240 241 221 198 210 286 201 177 235 250 254 280 243 158 169 184 189 210 216 238 236 248 241 221 237 254 269 247 243 251 23 15 276 62 3 7 1 331 327 304
261 259 257 256 255 256 254 252 250 247 243 240 233 232 239 240 240 234 218 191 169 200 214 230 251 10 175 177 219 166 180 184 213 222 217 227 214 220 248 254 248 253 117 83 54 41 21 352 21 352 350 339 325 320
265 264 260 258 255 254 253 254 248 245 245 233 228 231 236 216 190 206 194 201 184 199 209 201 160 236 151 202 109 184 175 205 199 215 215 187 218 224 214 241 242 95 123 36 354 11 41 7 336 336 336 324 303 306
266 269 271 264 259 255 253 253 248 236 236 224 216 188 204 181 154 117 103 226 207 199 205 200 98 226 141 168 185 146 200 218 207 230 109 215 237 228 86 86 89 82 65 33 39 324 343 313 322 318 309 302 299 303
269 264 259 258 261 258 256 253 246 233 230 182 187 166 129 149 91 163 202 205 177 216 212 146 184 150 210 138 205 221 198 217 211 250 188 205 261 181 120 105 84 72 60 62 40 320 302 289 301 306 307 305 302 301
261 260 259 257 253 249 250 254 240 208 223 167 140 105 140 176 180 190 182 179 193 211 255 162 190 197 206 138 143 215 205 80 233 106 230 244 239 88 70 60 60 41 31 3 337 319 314 304 303 299 297 297 299 295
267 260 257 253 249 249 239 229 236 216 176 125 189 148 167 180 193 184 173 230 295 202 201 182 193 163 170 205 201 165 201 218 93 194 223 228 112 93 56 39 28 16 2 329 318 310 297 286 284 278 287 286 288 288
258 255 256 249 241 242 235 228 227 215 176 198 176 177 183 174 207 176 168 177 213 142 152 148 101 155 191 152 210 227 165 146 212 236 236 206 158 174 326 338 26 315 304 294 288 288 284 282 286 283 273 278 283 282
259 248 247 239 233 232 232 226 226 193 200 215 156 188 178 181 39 350 38 90 225 144 122 72 29 138 188 222 210 98 185 246 198 224 215 201 133 211 260 286 294 294 297 289 282 286 283 285 285 286 275 267 264 273
257 244 235 228 224 227 232 235 204 184 87 253 62 102 50 69 330 6 118 175 234 32 93 77 134 137 218 188 161 214 147 219 241 199 214 128 305 287 275 273 278 262 264 275 279 270 285 282 277 278 291 278 270 265
65 358 324 239 226 221 225 121 88 49 55 77 89 11 25 64 145 164 156 172 177 120 177 140 181 202 82 72 256 193 207 219 198 245 230 216 233 267 272 278 281 284 291 286 274 279 266 269 279 281 281 282 281 295
48 327 323 323 92 72 41 22 79 74 67 30 102 314 39 50 89 12 89 84 214 177 175 197 128 130 186 184 250 223 222 250 223 211 227 248 256 272 241 267 291 279 282 286 270 274 270 288 288 275 284 297 308 307
40 25 353 172 108 88 58 29 20 93 90 127 85 41 49 86 56 43 17 56 37 319 155 83 129 196 215 152 173 229 250 204 192 239 247 271 254 272 288 275 290 304 299 281 293 289 281 276 295 319 317 318 322 324
63 36 43 44 52 84 75 37 24 87 99 200 55 51 75 60 26 13 32 21 20 127 125 135 204 207 153 211 186 161 175 167 122 28 320 300 268 334 312 302 300 292 299 321 319 344 340 344 345 335 333 345 346 341
38 360 26 60 57 59 71 74 55 56 112 77 29 33 66 44 45 21 5 356 36 82 140 196 204 241 282 269 222 124 127 146 183 167 188 269 289 309 314 322 321 324 349 354 349 348 360 353 340 340 343 349 350 352
305 20 61 27 85 72 74 14 86 80 66 103 82 31 64 83 32 319 287 50 193 218 176 164 202 167 65 215 226 199 186 129 104 272 282 288 310 332 331 354 354 343 354 5 345 337 340 347 351 351 355 356 358 9
25 32 52 17 85 52 27 333 76 18 101 106 179 115 47 18 258 284 51 207 252 246 189 165 178 185 146 263 156 71 172 129 112 235 258 245 248 254 271 229 334 358 352 351 334 326 332 343 345 355 354 2 5 5
30 46 37 41 26 85 356 36 30 69 66 48 60 70 350 288 324 46 267 265 252 330 38 188 137 74 7 26 45 247 238 174 200 240 213 209 255 252 236 250 207 221 312 300 314 323 334 338 347 348 353 350 350 350
70 2 16 11 1 53 41 25 6 51 72 347 75 3 290 16 68 72 230 270 301 249 227 183 137 125 145 228 282 255 234 172 190 220 242 198 215 285 262 258 213 193 272 316 338 332 328 325 333 332 336 335 348 341
68 316 53 285 328 76 190 76 44 165 133 76 190 257 32 87 79 245 233 218 212 197 190 180 169 151 270 198 164 208 224 177 149 218 258 189 200 200 221 256 290 262 192 190 239 295 307 306 304 318 316 326 335 331
64 341 330 224 127 113 58 32 79 91 87 132 218 76 77 101 250 255 283 230 203 221 194 160 156 165 191 192 225 250 177 173 202 218 210 211 222 209 202 214 240 238 169 205 211 216 264 288 291 293 297 295 255 250
123 22 70 310 37 356 121 63 59 101 228 247 76 143 159 186 230 242 214 251 219 230 123 111 137 147 148 183 172 151 201 246 284 276 269 254 228 216 216 228 240 258 245 214 227 237 236 249 267 279 283 280 288 228
38 325 36 12 5 38 97 139 202 240 207 114 134 250 251 237 239 245 296 303 247 100 95 111 333 56 51 9 330 242 193 152 94 358 329 292 329 292 201 217 233 237 237 248 271 270 255 241 244 247 256 260 278 271
331 10 67 40 74 337 262 163 232 267 263 194 230 308 299 276 251 233 309 69 129 176 178 160 155 140 200 168 283 312 248 195 193 174 191 230 228 253 247 246 254 255 243 245 269 284 296 334 327 328 313 291 266 266
311 18 40 59 221 255 240 279 300 324 8 351 342 166 253 301 306 249 194 209 146 118 117 177 260 210 165 198 190 263 302 272 220 239 250 266 270 262 253 248 240 230 224 231 244 247 257 259 246 272 282 284 284 275
8 69 78 359 308 292 26 40 5 40 333 19 293 335 318 346 302 290 220 118 91 190 228 173 187 251 215 233 235 248 246 276 247 241 250 253 259 258 258 256 240 222 232 243 240 239 237 248 264 264 270 275 276 275
25 114 191 352 354 359 333 27 17 342 8 357 301 236 229 192 246 283 302 197 189 194 214 217 231 235 234 236 240 257 247 244 253 264 264 256 254 259 260 245 231 225 235 244 249 245 250 254 261 263 262 263 267 268